STARLINK-2474 (48132 NORAD) Tracking and Keplerian Element Data

This shows tracking and keplerian element data for the satellite.

Feedback or suggestion? Click here.




ElementValue
Catalog48132
NameSTARLINK-2474
Epoch Orbit182
Epoch Day136.91668981
Epoch Year2021
RAAN145.9558
Inclination53.0464
Eccentricity0.0001164
Argument of Perigee59.5096
Mean Anonmoly294.7284
Mean Motion15.53754156
Decay Rate-0.0108928
L11 48132U 21027AS 21136.91668981 -.01089280 00000-0 -18428-1 0 9995
L22 48132 53.0464 145.9558 0001164 59.5096 294.7284 15.53754156 1824

Live tracking and technical data element details for STARLINK-2474 (NORAD 48132). STARLINK-2474 can be tracked NOW for your location showing map with azimuth and elevation plus other details from your city location.

Track the satellite on the map from your city or location and see movement details for azimuth, elevation, latitude, longitude, range, height, and movement on the map or in text.







IsCatalogInMostPopularTable: catalog: 48132, numindb: 14
Update: records affected: 1



GetName: 48132 STARLINK-2474

Hit Count: updated at: Mon, 17 May 2021 15:12:09 GMT